Back to catalog

STARLINK-37481

AliveCommunicationsVLEO
NORAD 100032·PAYLOAD·🇺🇸 United States

Launched Jul 14, 2026 from Cape Canaveral Space Force Station

Loading…

Next Passes (next 24 hours)

TLE

FreshSource: Space-Track

Epoch: Sep 14, 2026, 09:26 UTC

1 A0032U 26161E   26257.39333153  .00020625  00000-0  61988-3 0  9993
2 A0032  53.1608  26.2080 0002361  87.6279 272.4994 15.34398906  9676

Track STARLINK-37481 in real time with AllMySat

Download on the App Store